Weather History for Mexico City Airport, Mexico

Change the Weather History Date:

Thursday, May 12, 2011

  Actual Average Record
Temperature  
Mean Temperature 70 °F -  
Max Temperature 82 °F 77 °F 87 °F (1998)
Min Temperature 57 °F 53 °F 48 °F (2001)
Cooling Degree Days 4    
Growing Degree Days 20 (Base 50)    
Moisture  
Dew Point 45 °F    
Average Humidity 41    
Maximum Humidity 72    
Minimum Humidity 19    
Precipitation  
Precipitation 0.00 in - - ()
Sea Level Pressure  
Sea Level Pressure 30.11 in    
Wind  
Wind Speed 6 mph ()    
Max Wind Speed 18 mph    
Max Gust Speed 28 mph    
Visibility 4.5 miles    
Events      
Averages and records for this station are not official NWS values.
T = Trace of Precipitation, MM = Missing Value Source: Averaged Metar Reports

Daily Weather History Graph

Daily Weather History Graph

Search for Another Location

Airport:

Trip Planner

Search our weather history database for the weather conditions in past years. The results will help you decide how hot, cold, wet, or windy it might be!

Date:

Astronomy

May. 12, 2011 Rise Set
Actual Time 7:02 AM CDT 8:03 PM CDT
Civil Twilight 6:39 AM CDT 8:26 PM CDT
Nautical Twilight 6:11 AM CDT 8:54 PM CDT
Astronomical Twilight 5:43 AM CDT 9:22 PM CDT
Moon 3:24 PM CDT (5/12) 3:01 AM CDT (5/12)
Length of Visible Light 13h 47m
Length of Day
13h 00m
Waxing Gibbous, 71% of the Moon is Illuminated
May 12
Waxing Gibbous
May 17
Full
May 24
Last Quarter
Jun 1
New
Jun 8
First Quarter

Hourly Weather History & Observations

Time (CDT) Temp. Dew Point Humidity Pressure Visibility Wind Dir Wind Speed Gust Speed Precip Events Conditions
12:45 AM 69.8 °F 48.2 °F 46% 29.61 in 8.0 mi ESE 18.4 mph - N/A   Mostly Cloudy
1:45 AM 68.0 °F 46.4 °F 46% 30.26 in 8.0 mi SE 9.2 mph - N/A   Partly Cloudy
2:45 AM 66.2 °F 48.2 °F 52% 30.23 in 8.0 mi SSE 8.1 mph - N/A   Clear
3:47 AM 64.4 °F 46.4 °F 52% 29.59 in 8.0 mi South 4.6 mph - N/A   Clear
4:46 AM 62.6 °F 44.6 °F 52% 30.22 in 8.0 mi SE 4.6 mph - N/A   Clear
5:45 AM 64.4 °F 46.4 °F 52% 30.23 in 8.0 mi Calm Calm - N/A   Clear
6:45 AM 62.6 °F 46.4 °F 55% 29.65 in 5.0 mi Calm Calm - N/A   Clear
7:15 AM 57.2 °F 48.2 °F 72% 30.26 in 2.0 mi NE 5.8 mph - N/A   Clear
7:20 AM 57.2 °F 48.2 °F 72% 30.27 in 2.0 mi NE 5.8 mph - N/A   Clear
7:46 AM 59.0 °F 48.2 °F 67% 30.27 in 2.0 mi NE 5.8 mph - N/A   Clear
8:12 AM 62.6 °F 48.2 °F 59% 30.29 in 3.0 mi ENE 3.5 mph - N/A   Haze
8:20 AM 62.6 °F 48.2 °F 59% 30.29 in 3.0 mi ENE 4.6 mph - N/A   Haze
8:49 AM 64.4 °F 48.2 °F 56% 30.30 in 3.0 mi ENE 5.8 mph - N/A   Haze
9:18 AM 68.0 °F 48.2 °F 49% 30.30 in 3.0 mi NNE 4.6 mph - N/A   Haze
9:20 AM 68.0 °F 48.2 °F 49% 30.30 in 3.0 mi NNE 4.6 mph - N/A   Haze
9:45 AM 69.8 °F 48.2 °F 46% 29.70 in 3.0 mi NNE 5.8 mph - N/A   Haze
10:20 AM 71.6 °F 48.2 °F 43% 30.32 in 3.0 mi ENE 4.6 mph - N/A   Haze
10:48 AM 73.4 °F 46.4 °F 38% 30.31 in 3.0 mi ENE 8.1 mph - N/A   Haze
11:41 AM 77.0 °F 44.6 °F 32% 30.30 in 3.0 mi Calm Calm - N/A   Haze
11:43 AM 77.0 °F 44.6 °F 32% 30.30 in 3.0 mi Calm Calm - N/A   Haze
12:39 PM 80.6 °F 42.8 °F 26% 30.28 in 3.0 mi NNE 5.8 mph - N/A   Haze
12:43 PM 80.6 °F 42.8 °F 26% 29.62 in 3.0 mi NNE 5.8 mph - N/A   Haze
1:43 PM 82.4 °F 42.8 °F 25% 30.26 in 4.0 mi NE 5.8 mph - N/A   Scattered Clouds
2:49 PM 82.4 °F 35.6 °F 19% 30.22 in 5.0 mi East 6.9 mph - N/A   Mostly Cloudy
3:48 PM 82.4 °F 35.6 °F 19% 29.58 in 5.0 mi NE 8.1 mph - N/A   Mostly Cloudy
4:48 PM 82.4 °F 35.6 °F 19% 30.18 in 5.0 mi North 6.9 mph - N/A   Mostly Cloudy
5:03 PM 82.4 °F 35.6 °F 19% 30.18 in 5.0 mi ESE 9.2 mph - N/A   Mostly Cloudy
5:46 PM 82.4 °F 42.8 °F 25% 30.18 in 4.0 mi ESE 11.5 mph - N/A   Mostly Cloudy
6:42 PM 78.8 °F 44.6 °F 30% 30.19 in 4.0 mi SE 8.1 mph - N/A   Mostly Cloudy
6:54 PM 78.8 °F 44.6 °F 30% 29.58 in 5.0 mi South 11.5 mph 27.6 mph N/A   Mostly Cloudy
7:51 PM 77.0 °F 42.8 °F 29% 30.21 in 5.0 mi SW 6.9 mph - N/A   Mostly Cloudy
8:49 PM 75.2 °F 42.8 °F 31% 30.23 in 6.0 mi SE 5.8 mph - N/A   Mostly Cloudy
9:49 PM 75.2 °F 42.8 °F 31% 29.64 in 6.0 mi SSW 8.1 mph - N/A   Mostly Cloudy
10:44 PM 73.4 °F 44.6 °F 36% 30.27 in 5.0 mi East 5.8 mph - N/A   Mostly Cloudy
11:45 PM 73.4 °F 44.6 °F 36% 30.28 in 5.0 mi SSE 4.6 mph - N/A   Partly Cloudy